Wind_Speed
9 10 11 13 14 15 16 17 18 18 19 19 18 17 17 18 17 17 17 17 17 17 15 14 14 12 11 10 10 9 7 7 6 5 5 4 4 3 4 4 5 5 6 6
7 9 11 12 13 14 15 16 18 18 18 18 18 17 17 17 17 16 16 16 16 16 15 14 14 13 12 11 10 9 8 7 6 6 5 4 3 3 3 3 4 5 6 6
7 9 11 12 13 13 14 15 16 17 17 18 17 17 16 17 16 16 16 17 16 16 15 13 14 14 12 12 10 10 8 7 6 6 5 4 3 3 3 3 4 4 5 6
7 9 11 12 13 13 14 15 16 16 17 17 17 17 17 16 17 17 17 17 16 16 15 14 14 13 13 12 11 10 9 7 6 6 5 3 2 2 2 3 3 4 5 6
7 9 11 12 13 13 13 14 15 16 17 17 16 17 16 17 17 17 18 17 16 15 15 14 13 14 13 12 11 10 9 8 7 6 5 4 2 2 2 2 3 4 5 6
7 9 10 12 13 13 13 13 14 15 15 15 16 16 16 17 16 17 17 17 16 16 15 15 14 14 14 13 12 10 9 8 7 7 6 4 3 2 2 2 2 3 5 6
7 9 10 11 12 13 13 13 13 14 14 14 14 15 16 16 16 16 17 17 17 16 15 15 14 14 14 14 13 11 10 9 8 7 6 5 4 3 3 3 3 3 4 5
8 9 10 11 12 12 12 13 14 13 13 13 13 14 15 15 16 16 16 17 17 17 16 16 15 14 14 14 14 12 11 10 9 8 7 6 5 4 4 3 3 3 4 4
9 10 10 11 11 12 12 12 13 13 12 13 13 13 13 15 16 16 16 17 17 16 15 16 16 15 14 14 14 13 12 11 10 9 7 6 5 5 4 4 4 3 4 4
9 10 11 12 12 12 11 12 12 12 11 11 12 12 13 14 16 17 17 16 16 15 15 16 15 15 14 15 15 14 13 12 10 9 8 7 6 6 5 4 3 3 3 3
10 10 10 11 12 11 11 11 12 11 11 11 11 11 12 14 16 16 17 16 15 15 15 15 16 15 15 15 15 15 14 12 11 10 9 8 7 7 6 5 4 3 3 4
10 10 10 11 11 11 11 11 11 11 11 11 11 11 12 14 16 17 17 17 16 16 16 15 15 15 15 15 15 14 14 12 11 10 10 9 8 8 7 6 6 5 5 5
10 10 10 11 11 11 11 11 11 11 10 10 10 11 12 13 15 16 17 17 17 16 16 16 16 16 16 15 15 15 14 13 12 11 10 10 9 8 8 8 7 7 7 7
11 11 11 12 11 10 11 10 10 10 11 10 10 10 11 13 14 15 16 16 16 16 16 16 16 16 16 16 16 16 15 14 13 12 12 11 10 10 9 9 9 9 8 8
11 11 11 12 11 11 11 11 10 10 10 11 10 11 12 13 14 15 16 16 16 16 16 17 17 17 17 16 16 16 15 14 13 13 12 12 11 11 10 10 10 10 9 9
12 13 12 12 12 12 12 11 10 10 10 10 11 11 12 13 14 15 15 16 16 16 16 17 18 18 17 17 17 17 16 15 14 14 13 12 12 12 11 11 11 11 11 11
13 14 14 14 13 13 12 11 12 11 10 11 11 11 13 13 14 14 15 16 16 17 16 17 17 17 17 17 17 17 16 15 15 14 14 14 13 12 12 11 11 11 11 11
14 14 15 15 15 15 13 12 12 12 12 11 11 12 14 14 13 13 13 14 15 16 16 17 16 17 17 17 17 17 17 16 16 15 15 15 14 13 13 13 13 13 13 13
15 15 15 15 16 15 14 13 13 13 12 12 12 13 14 14 13 13 13 14 15 16 17 17 17 17 17 18 17 17 17 17 17 16 16 16 15 15 14 14 14 14 15 15
17 17 16 15 15 15 15 15 14 13 13 13 13 14 14 14 13 13 13 14 15 15 16 17 17 18 18 18 18 18 18 18 17 17 17 16 16 16 16 16 16 16 16 17
18 18 17 16 16 15 15 16 16 14 13 13 13 14 14 15 14 14 13 14 14 15 16 17 18 18 19 19 19 19 18 18 18 18 18 18 18 18 18 18 18 18 18 19
19 19 19 18 17 15 16 16 17 16 16 15 14 14 15 15 15 15 15 15 16 16 17 18 18 19 19 19 19 19 19 19 20 20 19 19 20 20 20 20 21 21 21 22
20 20 20 20 19 18 17 18 19 18 17 17 16 16 16 16 16 17 17 17 18 18 19 19 19 19 20 20 20 20 20 20 20 21 21 22 22 22 22 23 23 23 24 25
22 21 22 22 21 21 20 19 19 19 19 18 18 18 18 18 18 18 18 18 19 19 19 19 20 20 21 21 21 21 22 22 22 23 23 24 24 25 25 25 26 27 28 29
23 23 23 23 23 22 22 21 21 20 20 20 20 20 20 19 19 18 18 18 19 20 20 20 21 21 21 22 22 23 23 24 24 25 25 26 27 27 28 28 29 30 31 32
25 25 25 25 25 24 23 23 23 23 22 22 22 21 21 21 21 20 20 20 20 21 21 22 22 22 23 23 24 24 24 25 26 26 27 28 29 30 31 31 32 33 34 35
Wind_Direction
210 204 203 203 204 203 203 207 208 209 207 209 211 210 209 212 212 211 210 208 209 208 208 208 210 213 213 212 212 210 217 230 242 250 256 267 278 295 313 326 339 348 353 357
204 200 201 200 201 201 202 205 209 208 209 210 210 208 205 211 213 209 209 205 205 206 206 209 211 211 210 208 210 209 217 227 237 245 250 259 274 291 313 329 346 358 5 7
197 195 198 198 199 199 199 200 204 204 206 207 207 209 211 210 209 209 207 205 206 204 204 207 206 207 210 211 213 215 217 224 233 241 247 258 274 290 315 335 357 6 13 14
200 193 194 197 197 197 196 198 201 202 203 205 206 210 212 210 211 211 209 208 207 205 207 207 204 206 209 211 213 215 219 227 235 239 243 248 269 294 326 349 8 14 14 14
201 193 190 193 196 198 198 198 203 203 204 205 210 214 212 210 210 210 208 208 208 205 205 207 209 210 210 210 212 216 221 228 235 240 242 245 268 291 312 347 6 12 11 10
201 194 190 191 194 198 200 202 203 204 206 210 212 215 214 210 210 209 208 209 208 208 208 209 212 213 212 213 215 218 221 226 234 236 239 243 255 279 302 331 349 1 8 10
193 193 191 191 193 195 198 199 200 203 207 212 212 214 211 209 207 206 205 206 207 209 210 211 211 213 212 213 215 219 221 225 230 236 238 239 250 264 284 312 325 338 354 359
195 196 194 192 192 196 197 197 198 205 210 212 212 211 209 207 208 208 206 205 207 209 211 213 214 215 215 215 216 217 221 226 230 235 237 238 249 257 270 292 303 318 341 350
198 201 199 196 194 196 194 201 203 207 211 213 212 210 210 209 209 210 207 206 208 211 214 215 215 217 217 216 217 216 220 224 229 234 237 239 247 252 265 285 293 307 328 335
202 206 207 204 200 199 198 197 198 201 203 210 214 215 214 213 210 207 206 208 212 215 216 216 215 216 218 218 219 218 222 227 231 231 235 238 241 249 261 276 283 311 325 325
202 207 207 204 204 202 201 201 202 205 205 205 212 217 217 213 209 207 208 211 213 216 216 217 215 215 219 218 218 221 225 229 231 231 232 236 238 246 257 263 273 295 308 309
203 203 205 203 203 203 204 206 208 210 212 211 215 219 214 211 211 209 208 210 213 214 216 218 216 218 220 219 219 224 227 228 230 233 238 239 240 248 256 259 270 280 292 293
204 201 203 206 208 208 208 210 211 211 211 213 215 217 217 214 212 212 211 211 213 214 217 219 219 220 219 220 222 226 229 230 232 237 239 239 244 253 258 259 266 274 280 283
208 205 205 208 214 211 210 212 210 209 210 214 218 215 215 212 211 211 211 212 215 215 217 219 221 221 220 222 224 226 228 230 232 237 236 241 249 254 259 262 268 272 277 279
213 211 210 212 213 209 209 214 215 215 215 218 218 217 213 212 212 213 214 217 218 218 220 221 223 223 222 223 225 228 229 230 234 236 238 244 250 253 257 262 267 270 273 274
219 217 215 216 216 216 214 217 221 222 220 221 219 217 216 216 218 220 219 220 220 220 220 221 221 223 223 225 227 229 229 232 236 237 241 247 250 253 257 262 266 270 273 274
223 222 219 221 224 223 223 224 225 226 225 226 221 218 220 220 224 225 222 221 218 217 219 220 221 222 224 227 229 230 233 237 239 239 243 248 251 254 257 262 267 270 273 276
227 225 224 226 228 229 225 227 227 227 228 231 224 224 228 224 225 226 225 226 221 218 219 221 222 224 226 228 230 232 236 238 239 241 245 248 250 253 257 261 265 270 274 278
228 227 228 228 229 228 228 227 228 229 229 229 228 229 233 231 230 232 233 230 227 225 222 222 225 227 229 232 233 235 238 240 242 243 247 248 250 253 258 263 267 272 277 280
232 233 231 229 230 231 229 227 230 231 229 230 232 234 234 233 233 235 239 237 232 229 227 227 228 230 233 235 237 240 242 243 244 246 248 249 251 256 261 265 269 273 276 280
234 236 234 232 234 232 229 228 229 232 233 234 235 234 234 235 236 236 237 238 235 232 232 232 233 235 237 239 241 243 243 245 247 247 249 251 254 258 263 267 270 274 277 280
235 234 233 234 237 234 231 229 231 234 236 239 239 238 238 238 238 238 237 238 237 237 238 239 238 239 240 241 244 245 247 249 249 250 251 253 256 260 264 268 272 275 278 282
236 234 233 235 238 238 234 232 235 237 238 240 242 242 242 243 242 243 242 240 239 239 240 240 242 243 243 246 247 249 251 251 252 253 254 257 259 262 266 270 274 276 279 283
237 235 235 235 237 239 237 235 237 238 240 242 243 243 243 244 245 246 247 246 244 240 241 243 244 245 247 248 249 252 254 254 255 257 258 261 263 266 268 272 275 278 281 283
238 236 237 237 238 239 239 238 237 239 243 245 246 245 244 245 246 245 246 248 246 243 244 246 246 247 248 249 251 254 255 256 257 258 260 264 266 268 270 273 275 278 281 284
238 237 237 238 238 240 241 241 239 241 243 245 246 247 247 246 247 247 246 245 246 247 247 248 249 250 251 252 255 257 257 258 259 261 263 265 268 270 272 274 277 279 282 284
Height
5808 5811 5812 5814 5816 5819 5822 5825 5828 5831 5833 5836 5839 5842 5844 5847 5850 5852 5855 5857 5860 5863 5865 5867 5869 5871 5873 5874 5876 5877 5879 5880 5880 5880 5880 5880 5880 5879 5878 5877 5876 5874 5873 5871
5808 5809 5811 5813 5815 5818 5821 5824 5827 5829 5831 5834 5837 5840 5843 5845 5848 5851 5853 5856 5859 5861 5863 5866 5868 5870 5872 5873 5875 5876 5877 5878 5879 5879 5880 5879 5879 5878 5878 5877 5875 5874 5872 5871
5807 5809 5810 5812 5814 5817 5819 5823 5825 5828 5830 5832 5836 5839 5841 5844 5846 5849 5852 5854 5857 5860 5862 5864 5866 5868 5870 5872 5874 5875 5876 5877 5878 5878 5878 5878 5878 5877 5877 5876 5875 5874 5872 5871
5806 5807 5809 5811 5813 5816 5819 5821 5824 5826 5829 5831 5835 5837 5839 5842 5844 5847 5850 5852 5855 5858 5860 5862 5865 5867 5869 5871 5872 5874 5875 5876 5877 5877 5878 5878 5877 5877 5876 5875 5874 5873 5872 5871
5806 5807 5808 5810 5813 5815 5818 5820 5822 5825 5827 5830 5833 5835 5838 5840 5842 5845 5848 5850 5853 5856 5858 5861 5863 5865 5867 5869 5871 5872 5874 5875 5876 5876 5876 5877 5877 5876 5876 5875 5874 5873 5872 5871
5805 5806 5808 5810 5812 5814 5817 5820 5822 5824 5826 5829 5831 5834 5836 5838 5841 5843 5846 5848 5851 5854 5856 5859 5861 5863 5865 5867 5869 5871 5872 5873 5874 5875 5875 5875 5875 5875 5875 5874 5874 5873 5872 5870
5805 5806 5808 5810 5812 5814 5816 5819 5822 5824 5826 5828 5830 5832 5835 5837 5839 5841 5844 5846 5849 5852 5855 5857 5860 5862 5864 5865 5868 5869 5871 5872 5873 5873 5874 5874 5874 5875 5874 5874 5873 5872 5871 5870
5805 5807 5808 5809 5812 5813 5815 5818 5822 5824 5826 5827 5828 5830 5833 5835 5837 5839 5841 5844 5847 5850 5852 5855 5857 5860 5861 5863 5865 5867 5869 5870 5871 5872 5872 5873 5873 5873 5873 5873 5872 5871 5870 5869
5805 5806 5808 5809 5810 5812 5814 5816 5820 5822 5823 5825 5827 5829 5831 5832 5834 5837 5839 5842 5845 5848 5850 5853 5855 5857 5859 5861 5863 5865 5867 5868 5869 5870 5871 5871 5872 5872 5872 5872 5871 5870 5869 5868
5804 5805 5806 5808 5810 5812 5814 5815 5818 5820 5822 5824 5826 5827 5830 5831 5832 5835 5837 5840 5843 5845 5848 5850 5852 5855 5857 5859 5861 5863 5865 5866 5867 5868 5869 5870 5870 5871 5871 5870 5870 5869 5868 5868
5802 5804 5806 5807 5809 5811 5813 5815 5816 5818 5820 5823 5825 5828 5827 5828 5831 5833 5835 5838 5840 5843 5845 5847 5850 5852 5854 5856 5859 5860 5862 5864 5865 5866 5867 5868 5868 5869 5869 5869 5868 5868 5867 5867
5801 5803 5805 5806 5808 5809 5811 5813 5815 5817 5819 5820 5822 5827 5824 5826 5828 5830 5833 5835 5837 5840 5842 5845 5847 5849 5852 5854 5856 5858 5860 5861 5863 5864 5865 5866 5866 5867 5867 5867 5867 5866 5866 5865
5800 5802 5804 5806 5809 5809 5810 5811 5813 5815 5816 5818 5820 5824 5822 5823 5825 5827 5830 5832 5834 5837 5840 5842 5844 5847 5849 5851 5853 5855 5857 5858 5860 5861 5862 5863 5864 5864 5864 5865 5864 5864 5864 5863
5798 5800 5803 5805 5806 5807 5808 5810 5811 5813 5815 5816 5818 5820 5820 5821 5823 5825 5827 5829 5831 5834 5837 5839 5842 5844 5846 5848 5850 5852 5854 5855 5857 5858 5859 5860 5861 5861 5861 5862 5862 5861 5861 5861
5796 5798 5800 5802 5803 5805 5806 5808 5809 5811 5813 5815 5816 5817 5818 5819 5820 5822 5824 5827 5829 5831 5834 5836 5838 5840 5842 5845 5847 5849 5850 5852 5853 5855 5856 5857 5857 5858 5858 5858 5858 5858 5858 5858
5794 5796 5798 5800 5801 5803 5804 5806 5807 5809 5810 5812 5814 5815 5816 5817 5818 5820 5822 5824 5826 5828 5830 5833 5835 5837 5839 5841 5844 5846 5847 5848 5850 5851 5852 5853 5854 5854 5854 5855 5855 5855 5854 5854
5791 5794 5796 5798 5799 5801 5803 5804 5805 5807 5808 5810 5811 5814 5813 5815 5816 5817 5819 5821 5823 5825 5827 5829 5831 5834 5836 5838 5840 5842 5843 5845 5846 5847 5848 5849 5850 5850 5850 5851 5851 5851 5851 5850
5789 5791 5793 5795 5798 5799 5803 5802 5803 5805 5806 5807 5809 5810 5811 5813 5814 5815 5817 5818 5820 5822 5824 5826 5828 5830 5832 5834 5836 5838 5839 5841 5842 5843 5844 5845 5846 5846 5847 5847 5847 5847 5847 5846
5786 5788 5790 5792 5794 5796 5798 5799 5800 5802 5804 5805 5806 5807 5809 5810 5811 5813 5814 5816 5817 5819 5821 5823 5825 5827 5829 5831 5832 5834 5835 5836 5838 5839 5840 5841 5841 5842 5842 5843 5843 5842 5842 5842
5782 5784 5786 5788 5790 5793 5796 5796 5797 5800 5801 5802 5803 5804 5806 5807 5809 5811 5811 5812 5814 5815 5817 5819 5821 5823 5825 5827 5828 5829 5831 5832 5833 5834 5835 5836 5837 5837 5838 5838 5838 5838 5837 5837
5778 5780 5782 5784 5786 5788 5791 5792 5794 5797 5799 5799 5799 5801 5802 5804 5806 5807 5808 5809 5810 5812 5814 5815 5817 5819 5821 5822 5824 5825 5826 5827 5828 5829 5830 5831 5832 5832 5832 5832 5832 5832 5832 5831
5773 5775 5778 5780 5782 5786 5786 5788 5790 5792 5793 5794 5795 5797 5798 5800 5801 5803 5804 5805 5806 5808 5810 5811 5813 5814 5816 5818 5819 5820 5821 5822 5823 5824 5825 5825 5826 5826 5827 5827 5827 5826 5826 5825
5768 5771 5773 5776 5779 5780 5781 5783 5785 5787 5788 5790 5791 5793 5794 5796 5797 5798 5800 5801 5802 5803 5805 5806 5808 5809 5811 5812 5813 5815 5816 5816 5817 5818 5819 5819 5820 5820 5820 5820 5820 5819 5819 5818
5763 5765 5767 5770 5772 5774 5776 5778 5780 5782 5783 5785 5787 5788 5790 5791 5792 5794 5795 5796 5797 5798 5800 5801 5803 5804 5805 5806 5807 5808 5809 5810 5811 5812 5812 5813 5813 5813 5813 5813 5812 5812 5811 5810
5757 5759 5761 5764 5766 5768 5770 5772 5774 5776 5778 5780 5781 5783 5784 5786 5787 5789 5790 5791 5792 5793 5794 5796 5797 5798 5799 5800 5801 5802 5802 5803 5804 5805 5805 5805 5806 5806 5805 5805 5804 5803 5802 5801
5750 5753 5755 5757 5760 5762 5764 5765 5768 5770 5772 5774 5775 5777 5778 5780 5781 5783 5784 5785 5786 5787 5788 5789 5790 5791 5792 5793 5794 5795 5796 5796 5797 5797 5797 5797 5797 5797 5796 5796 5795 5794 5792 5791